Bartlesville, OK

9:08 AM CDT on September 19, 2017 (GMT -0500)
Bartlesville Municipal

Weather History for KBVO - August, 2013

Change the Weather History Date:

Tuesday, August 20, 2013

  Actual Average Record
Temperature  
Mean Temperature 75 °F -  
Max Temperature 89 °F 93 °F 105 °F (2001)
Min Temperature 62 °F 67 °F 49 °F (1967)
Cooling Degree Days 10    
Growing Degree Days 25 (Base 50)    
Moisture  
Dew Point 66 °F    
Average Humidity 84    
Maximum Humidity 100    
Minimum Humidity 49    
Precipitation  
Precipitation 0.00 in - - ()
Sea Level Pressure  
Sea Level Pressure 30.03 in    
Wind  
Wind Speed 1 mph (SSE)    
Max Wind Speed 9 mph    
Max Gust Speed -    
Visibility 6 miles    
Events      
Averages and records for this station are not official NWS values.
T = Trace of Precipitation, MM = Missing Value Source: NWS Daily Summary

Daily Weather History Graph

Daily Weather History Graph

Search for Another Location

Airport or City:

Trip Planner

Search our weather history database for the weather conditions in past years. The results will help you decide how hot, cold, wet, or windy it might be!

Date:

Astronomy

Aug. 20, 2013 Rise Set
Actual Time 6:45 AM CDT 8:08 PM CDT
Civil Twilight 6:18 AM CDT 8:35 PM CDT
Nautical Twilight 5:45 AM CDT 9:07 PM CDT
Astronomical Twilight 5:11 AM CDT 9:41 PM CDT
Moon 7:42 PM CDT (8/20) 6:15 AM CDT (8/20)
Length of Visible Light 14h 17m
Length of Day
13h 22m
Full, 100% of the Moon is Illuminated
Aug 20
Full
Aug 20
Full
Aug 28
Last Quarter
Sep 5
New
Sep 12
First Quarter

Hourly Weather History & Observations

Time (CDT) Temp. Heat Index Dew Point Humidity Pressure Visibility Wind Dir Wind Speed Gust Speed Precip Events Conditions
12:53 AM 66.9 °F - 66.0 °F 97% 30.03 in 5.0 mi Calm Calm - N/A   Clear
1:53 AM 66.0 °F - 64.9 °F 96% 30.02 in 4.0 mi Calm Calm - N/A   Clear
2:53 AM 64.9 °F - 64.9 °F 100% 30.01 in 4.0 mi Calm Calm - N/A   Clear
3:53 AM 64.0 °F - 64.0 °F 100% 30.01 in 2.5 mi Calm Calm - N/A   Clear
4:08 AM 64.4 °F - 62.6 °F 94% 30.04 in 3.0 mi Calm Calm - N/A   Clear
4:26 AM 62.6 °F - 62.6 °F 100% 30.04 in 1.8 mi Calm Calm - N/A   Clear
4:36 AM 62.6 °F - 62.6 °F 100% 30.04 in 3.0 mi Calm Calm - N/A   Clear
4:50 AM 62.6 °F - 62.6 °F 100% 30.04 in 2.5 mi Calm Calm - N/A   Clear
4:53 AM 63.0 °F - 63.0 °F 100% 30.01 in 3.0 mi Calm Calm - N/A   Clear
5:13 AM 62.6 °F - 62.6 °F 100% 30.04 in 2.5 mi Calm Calm - N/A   Clear
5:20 AM 62.6 °F - 62.6 °F 100% 30.04 in 4.0 mi Calm Calm - N/A   Clear
5:49 AM 62.6 °F - 62.6 °F 100% 30.05 in 2.0 mi Calm Calm - N/A   Clear
5:53 AM 63.0 °F - 63.0 °F 100% 30.02 in 2.5 mi Calm Calm - N/A   Clear
6:00 AM 62.6 °F - 62.6 °F 100% 30.05 in 5.0 mi Calm Calm - N/A   Clear
6:51 AM 62.6 °F - 62.6 °F 100% 30.06 in 2.5 mi Calm Calm - N/A   Clear
6:53 AM 63.0 °F - 63.0 °F 100% 30.03 in 2.5 mi Calm Calm - N/A   Clear
7:11 AM 62.6 °F - 62.6 °F 100% 30.07 in 4.0 mi Calm Calm - N/A   Clear
7:53 AM 68.0 °F - 66.9 °F 96% 30.05 in 4.0 mi Calm Calm - N/A   Clear
8:53 AM 73.0 °F - 68.0 °F 84% 30.06 in 8.0 mi SSE 3.5 mph - N/A   Clear
9:53 AM 78.1 °F - 69.1 °F 74% 30.06 in 10.0 mi SSE 5.8 mph - N/A   Clear
10:53 AM 82.0 °F 84.9 °F 68.0 °F 62% 30.06 in 10.0 mi South 6.9 mph - N/A   Clear
11:53 AM 84.0 °F 87.8 °F 69.1 °F 61% 30.06 in 10.0 mi Variable 3.5 mph - N/A   Clear
12:53 PM 84.9 °F 88.8 °F 69.1 °F 59% 30.04 in 10.0 mi SSW 6.9 mph - N/A   Clear
1:53 PM 86.0 °F 89.4 °F 68.0 °F 55% 30.03 in 10.0 mi Variable 5.8 mph - N/A   Clear
2:53 PM 87.1 °F 91.3 °F 69.1 °F 55% 30.01 in 10.0 mi SE 6.9 mph - N/A   Clear
3:53 PM 88.0 °F 91.4 °F 68.0 °F 51% 29.99 in 10.0 mi South 5.8 mph - N/A   Clear
4:53 PM 87.1 °F 89.2 °F 66.0 °F 49% 29.99 in 10.0 mi SSE 6.9 mph - N/A   Clear
5:53 PM 86.0 °F 89.4 °F 68.0 °F 55% 29.98 in 10.0 mi ESE 9.2 mph - N/A   Clear
6:53 PM 84.0 °F 86.3 °F 66.0 °F 55% 29.98 in 10.0 mi SSE 8.1 mph - N/A   Clear
7:53 PM 81.0 °F 83.3 °F 66.9 °F 62% 29.98 in 10.0 mi SE 5.8 mph - N/A   Clear
8:53 PM 73.0 °F - 70.0 °F 90% 30.00 in 10.0 mi Calm Calm - N/A   Clear
9:53 PM 73.9 °F - 68.0 °F 82% 30.01 in 10.0 mi Calm Calm - N/A   Clear
10:53 PM 69.1 °F - 68.0 °F 96% 30.02 in 10.0 mi Calm Calm - N/A   Clear
11:53 PM 68.0 °F - 66.9 °F 96% 30.02 in 6.0 mi Calm Calm - N/A   Clear